Back to catalog

STARLINK-6289

AliveCommunicationsVLEO
NORAD 56408·PAYLOAD·🇺🇸 United States

Launched May 4, 2023 from Cape Canaveral Space Force Station

Loading…

Next Passes (next 24 hours)

TLE

FreshSource: CelesTrak SupGP

Epoch: Sep 14, 2026, 22:22 UTC

1 56408C 23061AL  26257.93243056 -.00018971  00000+0 -68704-3 0  2571
2 56408  43.0029 197.9706 0001230 262.7281 343.8816 15.27592270    10

Track STARLINK-6289 in real time with AllMySat

Download on the App Store